sat.trackr.live / text

‹ back to catalog

ONEWEB-0226

NORAD 48793 · 2021-045AC

PAYLOAD ACTIVE UNKNOWN

§ Identity

Operator
Country
UK
Launch date
2021-05-28
Launch site
VOSTO
Launch vehicle
Mass (kg)
RCS (m²)

Purposes: comms

External: N2YO · Heavens-Above · Gunter

§ Orbital elements

Epoch: 2026-05-25T01:57:08.909568Z

Period
109.46 min
Inclination
87.8994°
Eccentricity
0.0001773
Mean motion
13.15548482 rev/d
Perigee alt
1,200.4 km
Apogee alt
1,203.1 km
Semi-major
7,579.9 km
B*
3.7726e-4
RAAN
263.7965°
Arg perigee
91.9611°
Mean anomaly
268.1723°
Rev number
24,131

§ Raw data

ONEWEB-02261 48793U 21045AC  26145.08135312  .00000155  00000+0  37726-3 0  99922 48793  87.8994 263.7965 0001773  91.9611 268.1723 13.15548482241312

JSON: /api/v1/satellites/48793 · /tle

For live sub-satellite position, see the globe view (requires WebGL).

§ Visibility from observer

Set your observer location to see the next 7 days of passes ≥ 10°. The values pass through the URL so the page stays shareable.

No JS? Fill the form by hand. The geolocation button needs JavaScript.